Regional Weather Roundup
Issued by NWS

Home | Current Version | Previous Version | Graphics & Text | Print | Product List | Glossary On
Versions: 1 2 3 4 5 6 7 8 9 10 11 12 13 14 15 16 17 18 19 20 21 22 23 24 25 26 27 28 29 30 31 32 33 34 35 36 37 38 39 40 41 42 43 44 45 46 47 48 49 50
000
ASUS43 KIND 261659
RWRIN

WEATHER ROUNDUP FOR INDIANA
NATIONAL WEATHER SERVICE INDIANAPOLIS IN
100 PM EDT SUN APR 26 2015

NOTE: "FAIR" INDICATES FEW OR NO CLOUDS BELOW 12,000 FEET WITH NO
SIGNIFICANT WEATHER AND/OR OBSTRUCTIONS TO VISIBILITY.

* - STATION DOES NOT REPORT WEATHER SUCH AS PRECIPITATION OR FOG.

+ - STATION NOT QUALITY CONTROLLED BY THE NATIONAL WEATHER SERVICE.
    USE DATA WITH CAUTION...ESPECIALLY DEWPOINT AND RELATIVE
    HUMIDITY OBSERVATIONS.

INZ001>003-010>013-019-020-261800-
NORTHWEST INDIANA

CITY           SKY/WX    TMP DP  RH WIND       PRES   REMARKS
GARY /AIRPORT/ SUNNY     48  32  53 N10       30.04
KNOX *+        MOSUNNY   52  12  20 NE15G23   29.97F
MONTICELLO +   MOSUNNY   52  34  49 NE16G23   29.96S

$$

LMZ046-743>745-261800-
SOUTHERN LAKE MICHIGAN

STATION/POSITION TIME  TEMP    WIND        PRES    WAVE
                       AIR SEA DIR/SP/G            HT
                 (UTC) (F)     (DEG/KT/KT) (MB)    (FT)
BURNS HARBOR     1600   41     360/ 12/ 14 1017.3S
MICHIGAN CITY    1600   41     340/ 16/ 17   N/A
5NW MICH CITY    1600   40 45  360/ 12/ 14   N/A     3

$$

INZ004-005-014>016-021>024-261800-
NORTH CENTRAL INDIANA

CITY           SKY/WX    TMP DP  RH WIND       PRES   REMARKS
GOSHEN         SUNNY     53  32  44 N16G23    29.96S
SOUTH BEND     PTSUNNY   54  29  38 N13G20    29.98F
WARSAW +       MOSUNNY   52  32  46 N12G22    29.95F

$$

INZ006>009-017-018-025>027-261800-
NORTHEAST INDIANA

CITY           SKY/WX    TMP DP  RH WIND       PRES   REMARKS
ANGOLA *+      SUNNY     52  36  54 N7        29.94S
FORT WAYNE     MOSUNNY   54  34  46 NE14G20   29.93F

$$

INZ028-029-035-036-043>045-051>053-261800-
WEST CENTRAL INDIANA

CITY           SKY/WX    TMP DP  RH WIND       PRES   REMARKS
CRAWFORDSVL +  MOSUNNY   50  32  49 NE14      29.94S
GREENCASTLE +  MOSUNNY   52  32  46 N12G17    29.93R
LAFAYETTE      MOSUNNY   52  34  50 NE14G21   29.96S
TERRE HAUTE    SUNNY     56  35  45 NE12G21   29.93R

$$

INZ030>032-037>040-046>048-054>057-064-065-261800-
CENTRAL INDIANA

CITY           SKY/WX    TMP DP  RH WIND       PRES   REMARKS
COLUMBUS       SUNNY     54  32  43 NE16      29.90
FRANKFORT +    SUNNY     51  39  62 N14       29.96S
GREENWOOD *+   SUNNY     52  32  46 NE10G20   29.92S
INDIANAPOLIS   MOSUNNY   53  33  46 NE13G21   29.90F
-EAGLE CREEK   SUNNY     52  34  50 N15       29.92S
KOKOMO *+      PTSUNNY   52  36  54 N10       29.94S
MT COMFORT *+  SUNNY     54  27  35 NE14G20   29.92S
SHELBYVILLE    SUNNY     55  36  48 N14G22    29.90S

$$

INZ033-034-041-042-049-050-058-059-261800-
EAST CENTRAL INDIANA

CITY           SKY/WX    TMP DP  RH WIND       PRES   REMARKS
MUNCIE         SUNNY     52  37  56 NE12      29.92S

$$

INZ060-061-067>069-081>083-085>088-261800-
SOUTHWEST INDIANA

CITY           SKY/WX    TMP DP  RH WIND       PRES   REMARKS
EVANSVILLE     SUNNY     58  37  45 N10       29.89F
HUNTINGBURG *+ SUNNY     57  37  47 N12       29.88F

$$

INZ062-063-066-070>080-084-089>092-261800-
SOUTH CENTRAL AND SOUTHEAST INDIANA

CITY           SKY/WX    TMP DP  RH WIND       PRES   REMARKS
BLOOMINGTON    SUNNY     57  34  41 NE16      29.89S
MADISON *+     SUNNY     55  30  38 N8        29.87S
SEYMOUR +      SUNNY     57  39  51 N14       29.88S

$$




USA.gov is the U.S. government's official web portal to all federal, state and local government web resources and services.